Location: Hopville
(44.8032°N, 123.1329°W)
Time: 03:04:38
(UTC+00:00)

Cosmos 1758 Rocket - Pass Details

Date: 24 January 2021
Orbit: 602 x 636 km, 82.5° (Epoch: 26 February)

Event Time Altitude Azimuth Distance (km) Brightness Sun altitude
Rises 14:48:36 0° 343° (NNW) 2,944 6.7 -9.2°
Reaches altitude 10° 14:50:59 10° 334° (NNW) 2,028 5.8 -8.8°
Maximum altitude 14:55:05 35° 269° (W) 1,020 4.2 -8.1°
Drops below altitude 10° 14:59:07 10° 204° (SSW) 1,999 6.1 -7.5°
Sets 15:01:27 0° 195° (SSW) 2,896 7.1 -7.1°
